"Pseudo-MPEC" for P12oZGt

Created 2026 Aug 12 7:35:12 UT using Find_Orb

Click here for an explanation of pseudo-MPECs

 
 Astrometry: 
     P12oZGt*0C2026 08 08.59168623 19 03.443+29 34 56.72   ~88FZ 21.38wXNEOCPF51
     P12oZGt 0C2026 08 08.59794323 19 03.938+29 34 27.72   ~88FZ 21.19wXNEOCPF51
     P12oZGt 0C2026 08 08.60418423 19 04.440+29 33 58.60   ~88FZ 21.08wXNEOCPF51
     P12oZGt 0C2026 08 08.61042923 19 04.933+29 33 29.98   ~88FZ 21.01wXNEOCPF51
     P12oZGt 1C2026 08 08.89307023 19 32.855+29 11 37.50   ~88MK 20.2 GXNEOCP033
     P12oZGt 1C2026 08 08.89456023 19 32.984+29 11 30.30   ~88MK 20.3 GXNEOCP033
     P12oZGt KB2026 08 08.89558 23 19 33.15 +29 11 28.3    ~88MK 19.5 VZNEOCP106
     P12oZGt 1C2026 08 08.89604023 19 33.107+29 11 23.70   ~88MK 20.1 GXNEOCP033
     P12oZGt KB2026 08 08.90258 23 19 33.71 +29 10 56.3    ~88MK       ZNEOCP106
     P12oZGt KB2026 08 08.90962 23 19 34.34 +29 10 24.4    ~88MK 19.8 VZNEOCP106
     P12oZGt KB2026 08 08.91667 23 19 34.92 +29 09 52.5    ~88MK       ZNEOCP106
     P12oZGt KB2026 08 08.96606723 19 38.976+29 06 07.96   ~8905 19.8 GXNEOCP595
     P12oZGt KB2026 08 08.98321423 19 40.385+29 04 48.79   ~8905 19.8 GXNEOCP595
     P12oZGt KB2026 08 09.00782 23 19 42.06 +29 02 57.3    ~89C5 20.2 GXNEOCPL04
     P12oZGt KB2026 08 09.02217 23 19 43.15 +29 01 51.5    ~89C5 20.7 GXNEOCPL04
     P12oZGt KC2026 08 09.34385723 20 11.37 +28 37 14.0    ~898o 21.3 GVNEOCPH21
     P12oZGt KC2026 08 09.34674523 20 11.59 +28 37 00.7    ~898o 21.2 GVNEOCPH21
     P12oZGt KC2026 08 09.34963423 20 11.82 +28 36 47.2    ~898o 21.3 GVNEOCPH21
     P12oZGt  C2026 08 09.37638323 20 14.434+28 34 46.93   ~899o 21.2 GWNEOCPH01
     P12oZGt  C2026 08 09.38139423 20 14.816+28 34 23.82   ~899o 21.0 GWNEOCPH01
     P12oZGt  C2026 08 09.39572123 20 15.884+28 33 17.77   ~899o 20.8 GWNEOCPH01
     P12oZGt  C2026 08 09.40118723 20 16.286+28 32 52.68   ~899o 21.1 GWNEOCPH01
     P12oZGt 1C2026 08 10.07516023 21 13.579+27 40 43.90   ~8A85 20.9 GXNEOCP033
     P12oZGt 1C2026 08 10.07598023 21 13.630+27 40 40.40   ~8A85 21.0 GXNEOCP033
     P12oZGt 1C2026 08 10.07683023 21 13.698+27 40 36.09   ~8A85 21.4 GXNEOCP033
     P12oZGt IB2026 08 10.10225223 21 15.49 +27 38 40.8    ~8A35 20.7 GVNEOCPL01
     P12oZGt KB2026 08 10.10732523 21 15.86 +27 38 17.0    ~8A35 21.9 GVNEOCPL01
     P12oZGt KB2026 08 10.11240423 21 16.26 +27 37 53.1    ~8A35 21.1 GVNEOCPL01
     P12oZGt 1C2026 08 12.08845023 23 50.136+25 03 32.20   ~8C7K 20.1 GXNEOCP033
     P12oZGt 1C2026 08 12.08939023 23 50.208+25 03 27.90   ~8C7K 20.4 GXNEOCP033
     P12oZGt 1C2026 08 12.09033023 23 50.276+25 03 23.50   ~8C7K 20.5 GXNEOCP033
     P12oZGt 1C2026 08 12.09127023 23 50.327+25 03 18.90   ~8C7K 20.4 GXNEOCP033

Station data:
(033) Karl Schwarzschild Observatory, Tautenburg  (N50.980139 E11.711240)
   Germany.  Observer B. Stecklum. 1.34-m f/3 Schmidt + CCD.
(106) Črni Vrh  (N45.945905 E14.071100)  Slovenia.  Observer J. Skvarč. 0.6-m
   f/3.3 Deltagraph + CCD.
(595) Farra d'Isonzo  (N45.915731 E13.525780)  Italy.  Observers S. Aschi, E.
   Pettarin, G. Panterotto. Measurers S. Aschi, E. Pettarin. 0.40-m f/5.15
   reflector + CCD.
(F51) Pan-STARRS 1, Haleakala  (N20.707234 W156.255910)  US/Hawaii.
   Observers J. Herman, T. Lowe, P. Minguez, A. Schultz, I. Smith. Measurers
   K. Chambers, T. de Boer, J. Fairlamb, H. Gao, M. Huber, C.-C. Lin, E.
   Magnier, Y. Ramanjooloo, R. Wainscoat, R. Weryk. 1.8-m Ritchey-Chrétien +
   CCD.
(H01) Magdalena Ridge Observatory, Socorro  (N33.984833 W107.189333)  US/New
   Mexico.  Observers W. H. Ryan, E. V. Ryan. Measurer W. H. Ryan. 2.4-m
   f/8.9 reflector + CCD.
(H21) Astronomical Research Observatory, Westfield  (N39.483054 W87.968270)
   US/Illinois.  Observer R. Holmes. Measurers S. Foglia, L. Buzzi, T.
   Linder, R. Holmes. 0.40-m f/5.32 astrograph + CCD.
(L01) Višnjan Observatory, Tičan  (N45.290897 E13.749300)  Croatia.
   Observers K. Korlević, L. Poropat. Measurer K. Korlevic. 1.0-m f/2.9
   reflector + CCD.
(L04) ROASTERR-1 Observatory, Cluj-Napoca  (N46.820952 E23.596400)  Romania.
   Observer L. Hudin. 0.1-m f/9 refractor + CCD.

Orbital elements:  P12oZGt
   Perihelion 2026 Jun 28.622499 +/- 0.0315 TT = 14:56:23.9 (JD 2461220.122499)
Epoch 2026 Aug 12.0 TT = JDT 2461264.5   Earth MOID: 0.2342   Ma: 0.0236
M   9.252330994 +/- 0.13            (J2000 ecliptic)             AutoNEOCP
n   0.208491484 +/- 0.00286         Peri.  116.995975 +/- 0.039
a   2.816721019 +/- 0.0258          Node   164.214899 +/- 0.013
e   0.61428474 +/- 0.00333          Incl.   20.517086 +/- 0.08
P   4.72733                H 21.53  G  0.15   U  8.8
q 1.086452256 +/- 0.000566    Q 4.546989783 +/- 0.051
From 32 observations 2026 Aug. 8-12; mean residual 0".20
Residuals in arcseconds: 
260808 F51  .07-  .22+    260808 595  .06+  .26+    260810 033  .00   .09-    
260808 F51  .06-  .06+    260808 595  .47+  .70-    260810 033  .13-  .22+    
260808 F51  .04+  .27-    260809 L04  .38+  .36+    260810 033  .06-  .14-    
260808 F51  .00   .06-    260809 L04  .22-  .43+    260810 L01  .00   .30+    
260808 033  .01-  .38+    260809 H21  .09+  .20-    260810 L01  .04-  .18+    
260808 033  .02+  .06-    260809 H21  .10+  .17-    260810 L01  .31+  .01-    
260808 106  .17-  .18+    260809 H21  .23+  .33-    260812 033  .19-  .12-    
260808 033  .02-  .05+    260809 H01  .03-  .11-    260812 033  .03-  .03+    
260808 106  .53-  .08-    260809 H01  .05+  .13-    260812 033  .08+  .08+    
260808 106  .03+  .04-    260809 H01  .03-  .09-    260812 033  .05-  .08-    
260808 106  .04-  .06+    260809 H01  .13-  .06+    

Ephemerides (geocentric):
Date (UTC) HH   RA             Dec           delta  r     elong  mag " sig PA
---- --------  ------------   ------------  ------ ------ -----  --- --------
2026 08 12 08  23 24 08.092   +24 44 28.87  .29340 1.2260 131.0 20.9 .079 101
2026 08 12 09  23 24 11.062   +24 41 11.91  .29344 1.2262 131.1 20.9 .083  98
2026 08 12 10  23 24 14.023   +24 37 54.90  .29347 1.2265 131.1 20.9 .088  95
2026 08 12 11  23 24 16.976   +24 34 37.84  .29350 1.2267 131.2 20.9 .093  93
2026 08 12 12  23 24 19.920   +24 31 20.74  .29354 1.2270 131.3 20.9 .098  91
2026 08 12 13  23 24 22.856   +24 28 03.58  .29358 1.2272 131.3 20.9 .103  89
2026 08 12 14  23 24 25.783   +24 24 46.38  .29361 1.2274 131.4 20.9 .109  87
2026 08 12 15  23 24 28.701   +24 21 29.13  .29365 1.2277 131.5 20.9 .115  85
2026 08 12 16  23 24 31.610   +24 18 11.84  .29368 1.2279 131.5 20.8 .121  83
2026 08 12 17  23 24 34.511   +24 14 54.51  .29372 1.2281 131.6 20.8 .127  82
2026 08 12 18  23 24 37.404   +24 11 37.12  .29376 1.2284 131.7 20.8 .134  81
2026 08 12 19  23 24 40.287   +24 08 19.70  .29380 1.2286 131.7 20.8 .140  79
2026 08 12 20  23 24 43.163   +24 05 02.23  .29383 1.2289 131.8 20.8 .147  78
2026 08 12 21  23 24 46.029   +24 01 44.72  .29387 1.2291 131.9 20.8 .154  77
2026 08 12 22  23 24 48.887   +23 58 27.17  .29391 1.2293 132.0 20.8 .161  76
2026 08 12 23  23 24 51.737   +23 55 09.57  .29395 1.2296 132.0 20.8 .168  75
2026 08 13 00  23 24 54.578   +23 51 51.94  .29399 1.2298 132.1 20.8 .176  74
2026 08 13 01  23 24 57.410   +23 48 34.26  .29403 1.2301 132.2 20.8 .183  73
2026 08 13 02  23 25 00.234   +23 45 16.55  .29407 1.2303 132.2 20.8 .191  72
2026 08 13 03  23 25 03.050   +23 41 58.79  .29411 1.2305 132.3 20.8 .199  72
2026 08 13 04  23 25 05.857   +23 38 41.00  .29415 1.2308 132.4 20.8 .207  71
2026 08 13 05  23 25 08.656   +23 35 23.16  .29419 1.2310 132.4 20.8 .215  70
2026 08 13 06  23 25 11.446   +23 32 05.29  .29423 1.2313 132.5 20.8 .224  70
2026 08 13 07  23 25 14.228   +23 28 47.39  .29428 1.2315 132.6 20.8 .232  69
2026 08 13 08  23 25 17.001   +23 25 29.44  .29432 1.2317 132.6 20.8 .241  69
2026 08 13 09  23 25 19.766   +23 22 11.46  .29436 1.2320 132.7 20.8 .249  68
2026 08 13 10  23 25 22.522   +23 18 53.45  .29440 1.2322 132.8 20.8 .258  68
2026 08 13 11  23 25 25.270   +23 15 35.40  .29445 1.2325 132.8 20.8 .267  67
2026 08 13 12  23 25 28.010   +23 12 17.32  .29449 1.2327 132.9 20.8 .276  67
2026 08 13 13  23 25 30.742   +23 08 59.20  .29454 1.2329 133.0 20.8 .286  66
2026 08 13 14  23 25 33.465   +23 05 41.05  .29458 1.2332 133.1 20.8 .295  66
2026 08 13 15  23 25 36.180   +23 02 22.86  .29462 1.2334 133.1 20.8 .305  65
2026 08 13 16  23 25 38.886   +22 59 04.65  .29467 1.2337 133.2 20.8 .314  65
2026 08 13 17  23 25 41.584   +22 55 46.40  .29471 1.2339 133.3 20.8 .324  65
2026 08 13 18  23 25 44.274   +22 52 28.13  .29476 1.2342 133.3 20.8 .334  64
2026 08 13 19  23 25 46.956   +22 49 09.82  .29481 1.2344 133.4 20.8 .344  64
2026 08 13 20  23 25 49.629   +22 45 51.48  .29485 1.2346 133.5 20.8 .354  64
2026 08 13 21  23 25 52.294   +22 42 33.11  .29490 1.2349 133.5 20.8 .365  63
2026 08 13 22  23 25 54.951   +22 39 14.72  .29495 1.2351 133.6 20.8 .375  63
2026 08 13 23  23 25 57.600   +22 35 56.30  .29500 1.2354 133.7 20.8 .386  63
2026 08 14 00  23 26 00.240   +22 32 37.85  .29504 1.2356 133.7 20.8 .397  62
2026 08 14 01  23 26 02.873   +22 29 19.37  .29509 1.2359 133.8 20.8 .407  62
2026 08 14 02  23 26 05.497   +22 26 00.87  .29514 1.2361 133.9 20.8 .418  62
2026 08 14 03  23 26 08.113   +22 22 42.34  .29519 1.2363 134.0 20.8 .430  62
2026 08 14 04  23 26 10.721   +22 19 23.78  .29524 1.2366 134.0 20.8 .441  61
2026 08 14 05  23 26 13.320   +22 16 05.21  .29529 1.2368 134.1 20.8 .452  61
2026 08 14 06  23 26 15.912   +22 12 46.60  .29534 1.2371 134.2 20.8 .464  61
2026 08 14 07  23 26 18.495   +22 09 27.98  .29539 1.2373 134.2 20.8 .475  61